Vertical_Velocity
5 4 2 3 3 1 1 2 3 2 2 2 2 2 2 2 1 2 1 1 1 1 1 1 2 2 2 1 0 -1 0 1 -1 -1 -0 -1 -1 -2 1 -2 -1 0 -0
3 3 1 1 2 3 4 3 3 2 2 2 2 2 1 2 2 1 1 1 1 2 1 1 1 1 0 0 1 1 0 1 1 -0 -2 -1 -0 -1 2 -3 -0 0 -1
1 1 3 2 4 4 5 4 3 2 1 -0 3 4 3 2 2 1 3 3 1 1 0 1 -0 -0 -0 -0 -0 -0 0 2 2 1 -0 1 -0 0 1 -1 1 -1 -0
1 -1 1 1 4 5 6 3 -0 1 3 8 7 4 3 2 2 1 1 1 1 1 -0 0 0 -0 0 -1 0 -0 -1 -1 -1 -0 -1 0 -2 -2 1 -0 -3 -3 -1
0 3 7 6 4 0 4 5 5 5 2 5 1 0 0 3 1 1 0 0 1 1 0 -0 0 0 -0 -0 0 -1 -1 0 -0 -0 -0 -0 -1 -2 -2 -1 5 4 0
5 2 5 4 3 4 8 5 2 3 -1 5 -0 2 5 4 0 2 1 1 2 1 0 1 0 0 0 -0 0 1 1 0 0 1 -0 -1 1 -3 -3 -7 -3 -8 4
3 5 5 4 6 5 3 4 4 4 3 0 0 3 3 2 1 1 1 1 2 1 1 1 0 -0 -0 1 0 0 1 1 1 -0 -1 -1 -2 -2 -2 -4 -4 -10 -4
3 4 3 5 6 7 4 6 5 3 2 2 2 3 4 3 2 2 3 3 3 1 1 -0 0 1 0 0 -0 -0 -0 -0 -1 -1 -1 -2 -4 -5 -5 -6 -7 -5 -5
6 7 3 5 6 4 4 4 4 4 4 3 2 3 3 1 2 2 1 2 2 1 2 1 1 1 1 -0 -1 -1 -2 -0 -1 -1 -2 -3 -2 -2 -4 -5 -7 -12 -12
4 5 4 3 4 5 3 4 3 3 3 2 3 2 3 3 3 1 1 1 2 1 -0 0 0 -0 -1 -2 -1 -2 -3 -2 -3 -2 -4 -3 -3 -3 -4 -4 -4 -5 -8
3 5 4 4 4 4 4 6 4 4 4 3 4 4 3 3 2 1 1 1 1 1 0 -1 -1 -1 -1 -1 -1 -1 -2 -2 -3 -4 -4 -1 -5 -2 -2 -3 -3 -3 -5
5 3 5 4 2 3 6 5 4 3 4 4 4 2 2 3 2 1 1 1 2 1 1 -0 -0 -0 0 -0 -1 -1 -2 -2 -3 -1 -5 -1 -6 -3 -2 -3 -2 -3 -2
4 3 3 4 5 3 4 4 5 4 3 4 3 3 2 2 2 1 2 1 1 0 0 -1 -1 -1 -1 -2 -3 -4 -2 -4 -4 -2 -4 -1 -6 -3 -3 -3 -3 -2 -2
6 4 4 5 5 4 1 4 6 5 5 4 2 3 3 3 2 2 2 2 2 2 2 1 1 1 -0 -0 -0 -3 -3 -4 -3 -2 -4 -1 -3 -3 -1 -2 -0 -0 -3
4 5 4 3 4 4 2 3 3 4 5 5 4 3 3 3 2 1 -0 0 0 1 0 -1 2 0 -2 -0 -1 -2 -3 -2 -0 0 -2 -3 -1 -1 -2 -2 4 -1 -1
3 3 5 4 3 5 5 4 5 5 3 3 4 2 2 2 3 3 2 1 1 1 -1 -0 -1 3 -0 3 3 -3 -2 0 1 0 1 -0 -2 -1 -2 -2 -1 -3 -7
4 3 4 4 4 5 6 5 4 1 1 2 3 4 2 1 3 2 1 2 1 -2 0 -0 -1 -1 -3 4 -2 1 -5 -7 -7 -4 -3 -2 -1 -1 -3 3 -3 -2 1
5 4 4 4 3 3 3 0 -0 1 0 1 2 3 -0 1 1 0 0 1 -1 -1 -1 -1 -1 -4 0 -1 -1 0 -4 -5 -3 -4 -3 -3 1 3 -0 -2 -4 -1 1
-4 -5 -4 -5 -4 -3 -3 -4 0 -0 -1 1 1 2 -0 0 -1 -1 3 3 -4 -2 0 -3 -2 -6 -2 3 0 -0 -2 -5 -3 -2 -2 1 1 5 1 -2 -4 -2 0
-8 -10 -8 -7 -6 -3 -4 -6 -0 -3 -0 -1 -2 -1 -2 -2 -3 1 1 2 -4 -4 -4 -3 -2 -0 -5 3 0 1 -3 -5 -1 1 -0 2 -2 0 1 -6 -7 -8 5
-6 -3 -3 -3 -2 -2 -5 -4 -2 1 0 -2 -3 -2 -0 -1 -0 -2 3 1 -1 -5 -2 -3 1 -2 0 1 2 4 -4 -2 -2 -3 1 0 1 1 1 -0 -4 -3 1
-0 0 -3 -2 -0 0 -4 -4 -5 1 -3 -3 -3 2 3 -1 -2 -1 3 2 1 -3 0 -3 -1 1 2 4 4 2 -2 3 -8 -0 1 -0 0 1 0 0 -1 -2 -2
-4 -4 -6 -2 3 0 -2 -4 2 -0 -2 -4 -2 -1 2 4 3 -5 -2 -2 1 -3 2 -2 -2 4 5 1 2 -0 -0 1 -7 -2 -1 -2 0 -3 -3 -0 1 3 -1
-3 -2 -2 -1 -2 -2 -0 -2 -1 3 -0 -3 -4 -1 -2 2 1 3 0 -2 -0 1 1 -1 -1 3 1 2 4 4 -3 -1 -2 -2 -1 3 0 -2 -1 -0 1 -2 -1
-3 -2 -4 -4 -4 -6 -5 -3 -4 -3 -4 -4 -1 -3 -3 4 -1 -3 2 -1 2 1 -1 1 -1 -1 0 12 -2 -2 1 1 3 -1 -3 0 1 1 -0 -0 -0 0 1
-3 -3 -2 -4 -3 -4 -4 -3 -1 -1 -4 -7 -5 -1 -4 -3 -4 -0 -1 6 -4 3 2 -1 -6 12 1 5 1 -2 -1 -0 5 -2 1 2 1 -1 1 -1 0 1 2
Height
3062 3064 3067 3070 3073 3076 3078 3081 3084 3086 3089 3091 3095 3098 3100 3103 3105 3107 3109 3111 3113 3114 3116 3118 3120 3121 3123 3124 3125 3127 3128 3128 3128 3129 3131 3131 3131 3131 3132 3134 3134 3134 3135
3053 3056 3058 3061 3064 3067 3069 3073 3075 3078 3081 3084 3086 3090 3092 3094 3096 3099 3101 3103 3105 3107 3109 3111 3113 3114 3115 3117 3118 3119 3120 3121 3122 3122 3122 3125 3125 3124 3125 3126 3127 3128 3127
3044 3047 3050 3053 3055 3058 3061 3064 3067 3069 3072 3075 3079 3082 3084 3086 3088 3091 3094 3095 3098 3100 3101 3103 3105 3106 3108 3109 3110 3112 3113 3115 3115 3116 3117 3116 3117 3117 3117 3118 3118 3120 3120
3035 3037 3040 3043 3046 3049 3053 3056 3057 3060 3063 3067 3071 3074 3076 3079 3082 3084 3086 3088 3090 3092 3093 3095 3097 3098 3099 3100 3101 3103 3104 3105 3106 3107 3108 3108 3108 3108 3110 3110 3108 3109 3110
3025 3028 3031 3035 3038 3041 3044 3047 3049 3053 3056 3060 3063 3064 3067 3071 3074 3076 3078 3080 3082 3083 3084 3086 3088 3089 3090 3091 3092 3093 3094 3095 3097 3098 3098 3099 3099 3098 3097 3100 3102 3101 3100
3015 3018 3022 3025 3028 3031 3034 3038 3041 3044 3047 3050 3053 3056 3060 3063 3065 3067 3070 3071 3073 3074 3076 3077 3078 3079 3080 3081 3082 3083 3083 3084 3085 3086 3087 3088 3088 3087 3085 3083 3085 3085 3088
3009 3011 3014 3016 3018 3022 3026 3030 3032 3035 3038 3041 3043 3048 3051 3053 3056 3058 3060 3062 3064 3065 3066 3067 3069 3070 3071 3071 3072 3073 3074 3075 3075 3075 3075 3076 3076 3076 3075 3072 3071 3069 3072
3003 3006 3006 3007 3009 3014 3017 3021 3024 3028 3030 3032 3035 3038 3041 3044 3047 3050 3051 3053 3054 3055 3056 3057 3059 3060 3061 3062 3063 3064 3064 3065 3065 3065 3065 3064 3064 3063 3063 3061 3059 3057 3055
2997 2998 3000 3001 3003 3007 3009 3013 3016 3019 3022 3024 3027 3030 3032 3035 3037 3040 3041 3043 3045 3046 3047 3049 3050 3051 3052 3053 3054 3054 3054 3054 3054 3054 3054 3054 3053 3051 3050 3048 3047 3044 3039
2990 2991 2993 2995 2998 3000 3002 3004 3007 3010 3013 3016 3018 3021 3023 3026 3028 3030 3032 3033 3035 3037 3037 3038 3040 3041 3042 3043 3043 3043 3043 3043 3042 3042 3042 3041 3040 3038 3037 3034 3032 3030 3026
2983 2984 2986 2988 2990 2992 2995 2997 3000 3002 3006 3008 3010 3013 3015 3016 3018 3020 3021 3023 3024 3025 3026 3028 3029 3029 3030 3030 3030 3030 3031 3030 3030 3030 3029 3028 3026 3025 3023 3020 3018 3016 3013
2977 2978 2979 2980 2983 2985 2987 2989 2992 2994 2997 2999 3002 3004 3005 3007 3009 3011 3012 3013 3014 3014 3015 3016 3017 3018 3018 3018 3018 3018 3018 3018 3017 3017 3016 3015 3013 3012 3010 3007 3006 3003 3002
2971 2972 2973 2974 2975 2977 2980 2982 2983 2985 2987 2989 2992 2995 2996 2998 2999 3000 3001 3002 3003 3004 3004 3005 3006 3006 3007 3007 3007 3007 3007 3006 3004 3004 3002 3002 3000 2998 2996 2994 2992 2991 2988
2966 2967 2968 2969 2970 2970 2972 2972 2973 2975 2977 2980 2982 2984 2985 2986 2987 2988 2989 2991 2992 2993 2993 2993 2993 2994 2995 2995 2995 2994 2993 2992 2990 2989 2986 2985 2984 2983 2982 2980 2979 2978 2975
2960 2961 2961 2962 2963 2963 2963 2964 2965 2965 2967 2969 2971 2973 2974 2975 2976 2977 2978 2978 2979 2980 2981 2981 2981 2981 2981 2981 2980 2978 2976 2975 2974 2972 2971 2971 2970 2969 2967 2966 2966 2965 2963
2952 2953 2953 2953 2954 2954 2955 2955 2955 2956 2957 2958 2960 2961 2962 2963 2964 2965 2965 2965 2965 2966 2966 2966 2966 2966 2966 2965 2964 2961 2959 2960 2959 2959 2958 2957 2956 2955 2953 2953 2952 2952 2950
2949 2948 2948 2947 2947 2947 2947 2947 2947 2947 2948 2948 2950 2950 2951 2951 2951 2951 2951 2951 2952 2952 2952 2951 2951 2951 2951 2951 2949 2947 2944 2943 2941 2942 2943 2943 2942 2941 2940 2940 2940 2940 2940
2945 2944 2943 2942 2941 2940 2940 2940 2939 2939 2939 2939 2939 2939 2939 2938 2938 2937 2937 2937 2937 2936 2936 2936 2936 2935 2936 2935 2934 2932 2930 2929 2929 2928 2928 2928 2928 2928 2926 2927 2927 2927 2926
2939 2938 2937 2936 2935 2934 2933 2932 2931 2930 2929 2928 2927 2926 2925 2924 2923 2923 2923 2923 2921 2921 2920 2921 2921 2920 2921 2920 2918 2917 2916 2915 2915 2915 2915 2914 2914 2915 2914 2913 2913 2913 2913
2927 2925 2924 2923 2923 2922 2920 2920 2919 2917 2915 2913 2911 2911 2910 2909 2908 2908 2907 2906 2905 2904 2904 2904 2904 2904 2904 2905 2904 2903 2902 2902 2902 2902 2902 2903 2902 2901 2901 2900 2899 2898 2900
2917 2915 2912 2909 2907 2905 2903 2902 2901 2900 2899 2897 2895 2893 2892 2890 2890 2889 2888 2887 2887 2886 2887 2888 2888 2888 2889 2890 2889 2889 2889 2889 2889 2889 2890 2890 2891 2891 2889 2888 2886 2885 2886
2906 2903 2899 2896 2894 2891 2887 2884 2882 2880 2878 2876 2876 2876 2875 2872 2870 2869 2870 2870 2870 2870 2871 2871 2873 2874 2875 2875 2875 2875 2875 2875 2875 2876 2877 2877 2877 2877 2877 2875 2874 2873 2873
2894 2890 2887 2884 2881 2877 2874 2870 2868 2864 2861 2859 2858 2857 2856 2855 2853 2852 2852 2852 2852 2852 2854 2855 2856 2859 2859 2860 2861 2861 2861 2863 2863 2863 2863 2864 2864 2864 2863 2863 2862 2863 2863
2883 2879 2875 2871 2867 2865 2862 2858 2855 2851 2847 2844 2842 2840 2839 2839 2838 2837 2837 2835 2836 2836 2837 2838 2839 2841 2842 2844 2845 2846 2847 2847 2848 2849 2850 2851 2851 2850 2850 2850 2850 2850 2850
2872 2868 2863 2859 2856 2852 2849 2846 2843 2839 2835 2832 2829 2827 2826 2825 2824 2823 2823 2821 2823 2821 2821 2823 2824 2825 2827 2831 2829 2830 2833 2834 2835 2836 2837 2837 2838 2838 2838 2839 2839 2839 2839
2861 2856 2852 2847 2844 2840 2836 2834 2831 2827 2823 2821 2819 2817 2815 2814 2812 2812 2811 2811 2809 2809 2809 2809 2810 2814 2814 2816 2816 2817 2819 2821 2823 2823 2824 2826 2826 2827 2828 2828 2828 2828 2829